sat.trackr.live / text

‹ back to catalog

STARLINK-1278

NORAD 45408 · 2020-019BA

PAYLOAD ACTIVE UNKNOWN

§ Identity

Operator
Country
US
Launch date
2020-03-18
Launch site
AFETR
Launch vehicle
Mass (kg)
RCS (m²)

Purposes: comms

External: N2YO · Heavens-Above · Gunter

§ Orbital elements

Epoch: 2026-09-20T06:00:02.000160Z

Period
90.10 min
Inclination
53.0284°
Eccentricity
0.0001892
Mean motion
15.98298116 rev/d
Perigee alt
277.9 km
Apogee alt
280.4 km
Semi-major
6,657.3 km
B*
2.2545e-3
RAAN
243.3694°
Arg perigee
87.4400°
Mean anomaly
77.1129°
Rev number
603

§ Raw data

STARLINK-12781 45408U 20019BA  26263.25002315  .01065342  55923-3  22545-2 0  99982 45408  53.0284 243.3694 0001892  87.4400  77.1129 15.98298116  6035

JSON: /api/v1/satellites/45408 · /tle

For live sub-satellite position, see the globe view (requires WebGL).

§ Visibility from observer

Set your observer location to see the next 7 days of passes ≥ 10°. The values pass through the URL so the page stays shareable.

No JS? Fill the form by hand. The geolocation button needs JavaScript.